| time (UTC) | temp F | wind direction | speed MPH | gust MPH | rain 1hr in | rain 24hr in | rain mn in | humidity % | barometer mb |
| 20260903201155 | 96 | 166 | 9.0 | 20.0 | 0.00 | 0.00 | 0.00 | 59 | 1010.2 |
| 20260903200654 | 96 | 167 | 10.0 | 18.0 | 0.00 | 0.00 | 0.00 | 59 | 1010.2 |
| 20260903200155 | 96 | 90 | 9.0 | 22.0 | 0.00 | 0.00 | 0.00 | 58 | 1010.2 |
| 20260903195921 | 96 | 169 | 9.0 | 22.0 | 0.00 | 0.00 | 0.00 | 60 | 1010.1 |
| 20260903195414 | 97 | 161 | 10.0 | 21.0 | 0.00 | 0.00 | 0.00 | 58 | 1010.1 |
| 20260903194656 | 98 | 157 | 12.0 | 22.0 | 0.00 | 0.00 | 0.00 | 59 | 1010.1 |
| 20260903194437 | 98 | 157 | 13.0 | 22.0 | 0.00 | 0.00 | 0.00 | 58 | 1010.3 |
| 20260903193657 | 96 | 170 | 11.0 | 22.0 | 0.00 | 0.00 | 0.00 | 60 | 1010.3 |
| 20260903193155 | 97 | 201 | 9.0 | 17.0 | 0.00 | 0.00 | 0.00 | 59 | 1010.3 |
| 20260903192659 | 97 | 149 | 9.0 | 18.0 | 0.00 | 0.00 | 0.00 | 58 | 1010.3 |
| 20260903192144 | 97 | 90 | 8.0 | 18.0 | 0.00 | 0.00 | 0.00 | 56 | 1010.3 |
| 20260903191638 | 98 | 116 | 8.0 | 18.0 | 0.00 | 0.00 | 0.00 | 57 | 1010.3 |
| 20260903191138 | 98 | 184 | 7.0 | 18.0 | 0.00 | 0.00 | 0.00 | 54 | 1010.4 |
| 20260903190618 | 97 | 188 | 6.0 | 10.0 | 0.00 | 0.00 | 0.00 | 55 | 1010.4 |
| 20260903190113 | 97 | 180 | 7.0 | 13.0 | 0.00 | 0.00 | 0.00 | 57 | 1010.4 |
| 20260903185602 | 97 | 90 | 7.0 | 11.0 | 0.00 | 0.00 | 0.00 | 57 | 1010.8 |
| 20260903185048 | 96 | 202 | 8.0 | 15.0 | 0.00 | 0.00 | 0.00 | 59 | 1010.8 |
| 20260903184759 | 95 | 207 | 9.0 | 16.0 | 0.00 | 0.00 | 0.00 | 58 | 1010.8 |
| 20260903184036 | 95 | 214 | 9.0 | 16.0 | 0.00 | 0.00 | 0.00 | 59 | 1010.8 |
| 20260903183529 | 95 | 218 | 9.0 | 16.0 | 0.00 | 0.00 | 0.00 | 63 | 1010.8 |
| 20260903183016 | 95 | 214 | 9.0 | 15.0 | 0.00 | 0.00 | 0.00 | 60 | 1011.0 |
| 20260903182505 | 96 | 230 | 8.0 | 13.0 | 0.00 | 0.00 | 0.00 | 59 | 1011.0 |
| 20260903182004 | 96 | 208 | 9.0 | 16.0 | 0.00 | 0.00 | 0.00 | 57 | 1011.0 |
| 20260903181502 | 96 | 205 | 9.0 | 16.0 | 0.00 | 0.00 | 0.00 | 57 | 1011.3 |
| 20260903181207 | 96 | 205 | 9.0 | 16.0 | 0.00 | 0.00 | 0.00 | 58 | 1011.3 |
| 20260903180434 | 96 | 214 | 8.0 | 16.0 | 0.00 | 0.00 | 0.00 | 59 | 1011.3 |
| 20260903175928 | 96 | 210 | 8.0 | 15.0 | 0.00 | 0.00 | 0.00 | 57 | 1011.4 |
| 20260903175420 | 96 | 232 | 9.0 | 15.0 | 0.00 | 0.00 | 0.00 | 57 | 1011.4 |
| 20260903175136 | 95 | 224 | 8.0 | 16.0 | 0.00 | 0.00 | 0.00 | 59 | 1011.4 |
| 20260903174422 | 95 | 197 | 7.0 | 16.0 | 0.00 | 0.00 | 0.00 | 60 | 1011.8 |
| 20260903173919 | 94 | 221 | 8.0 | 16.0 | 0.00 | 0.00 | 0.00 | 61 | 1011.8 |
| 20260903173422 | 95 | 197 | 8.0 | 16.0 | 0.00 | 0.00 | 0.00 | 62 | 1011.8 |
| 20260903173147 | 95 | 210 | 8.0 | 14.0 | 0.00 | 0.00 | 0.00 | 62 | 1011.9 |
| 20260903172430 | 94 | 159 | 8.0 | 15.0 | 0.00 | 0.00 | 0.00 | 61 | 1011.9 |
| 20260903172144 | 94 | 197 | 8.0 | 16.0 | 0.00 | 0.00 | 0.00 | 62 | 1011.9 |
| 20260903171417 | 94 | 164 | 8.0 | 16.0 | 0.00 | 0.00 | 0.00 | 64 | 1011.9 |
| 20260903170914 | 94 | 207 | 7.0 | 11.0 | 0.00 | 0.00 | 0.00 | 62 | 1011.9 |
| 20260903170429 | 94 | 238 | 8.0 | 0.0 | 0.00 | 0.00 | 0.00 | 65 | 1011.9 |
| 20260903165906 | 94 | 90 | 8.0 | 13.0 | 0.00 | 0.00 | 0.00 | 63 | 1011.9 |
| 20260903165406 | 94 | 187 | 8.0 | 15.0 | 0.00 | 0.00 | 0.00 | 63 | 1011.9 |
| 20260903164903 | 93 | 214 | 8.0 | 18.0 | 0.00 | 0.00 | 0.00 | 67 | 1011.9 |
| 20260903164134 | 93 | 209 | 9.0 | 18.0 | 0.00 | 0.00 | 0.00 | 64 | 1011.9 |
| 20260903163404 | 93 | 226 | 9.0 | 18.0 | 0.00 | 0.00 | 0.00 | 66 | 1011.9 |
| 20260903162344 | 93 | 213 | 9.0 | 16.0 | 0.00 | 0.00 | 0.00 | 68 | 1011.9 |
| 20260903161830 | 92 | 190 | 8.0 | 15.0 | 0.00 | 0.00 | 0.00 | 68 | 1011.9 |
| 20260903161604 | 92 | 178 | 9.0 | 14.0 | 0.00 | 0.00 | 0.00 | 70 | 1011.9 |
| 20260903160831 | 92 | 206 | 9.0 | 17.0 | 0.00 | 0.00 | 0.00 | 72 | 1011.9 |
| 20260903160330 | 91 | 210 | 9.0 | 17.0 | 0.00 | 0.00 | 0.00 | 72 | 1011.9 |
| 20260903155831 | 91 | 215 | 9.0 | 17.0 | 0.00 | 0.00 | 0.00 | 73 | 1012.0 |
| 20260903155329 | 90 | 216 | 9.0 | 17.0 | 0.00 | 0.00 | 0.00 | 75 | 1012.0 |
| 20260903154830 | 90 | 217 | 9.0 | 15.0 | 0.00 | 0.00 | 0.00 | 75 | 1012.0 |
| 20260903154558 | 90 | 218 | 9.0 | 15.0 | 0.00 | 0.00 | 0.00 | 76 | 1012.1 |
| 20260903154036 | 90 | 211 | 10.0 | 16.0 | 0.00 | 0.00 | 0.00 | 74 | 1012.1 |
| 20260903153305 | 90 | 218 | 9.0 | 16.0 | 0.00 | 0.00 | 0.00 | 77 | 1012.1 |
| 20260903152306 | 89 | 229 | 8.0 | 15.0 | 0.00 | 0.00 | 0.00 | 79 | 1012.3 |
| 20260903151801 | 89 | 214 | 9.0 | 15.0 | 0.00 | 0.00 | 0.00 | 80 | 1012.3 |
| 20260903151301 | 89 | 224 | 10.0 | 16.0 | 0.00 | 0.00 | 0.00 | 80 | 1012.3 |
| 20260903150803 | 89 | 225 | 11.0 | 16.0 | 0.00 | 0.00 | 0.00 | 81 | 1012.3 |
| 20260903150302 | 88 | 217 | 10.0 | 16.0 | 0.00 | 0.00 | 0.00 | 79 | 1012.3 |
| 20260903145802 | 88 | 219 | 9.0 | 15.0 | 0.00 | 0.00 | 0.00 | 82 | 1012.3 |
| 20260903145306 | 87 | 217 | 10.0 | 15.0 | 0.00 | 0.00 | 0.00 | 81 | 1012.3 |
| 20260903144803 | 87 | 224 | 11.0 | 15.0 | 0.00 | 0.00 | 0.00 | 81 | 1012.3 |
| 20260903144303 | 87 | 215 | 10.0 | 15.0 | 0.00 | 0.00 | 0.00 | 83 | 1012.4 |
| 20260903144017 | 87 | 215 | 9.0 | 14.0 | 0.00 | 0.00 | 0.00 | 85 | 1012.4 |
| 20260903143252 | 86 | 222 | 9.0 | 14.0 | 0.00 | 0.00 | 0.00 | 85 | 1012.4 |
| 20260903142752 | 86 | 220 | 9.0 | 15.0 | 0.00 | 0.00 | 0.00 | 86 | 1012.4 |
| 20260903142523 | 86 | 220 | 7.0 | 15.0 | 0.00 | 0.00 | 0.00 | 85 | 1012.4 |
| 20260903142013 | 86 | 224 | 8.0 | 13.0 | 0.00 | 0.00 | 0.00 | 86 | 1012.4 |
| 20260903141519 | 85 | 210 | 7.0 | 14.0 | 0.00 | 0.00 | 0.00 | 86 | 1012.4 |
| 20260903141013 | 85 | 211 | 6.0 | 14.0 | 0.00 | 0.00 | 0.00 | 87 | 1012.4 |
| 20260903140251 | 84 | 201 | 5.0 | 14.0 | 0.00 | 0.00 | 0.00 | 87 | 1012.4 |
| 20260903135752 | 84 | 199 | 4.0 | 9.0 | 0.00 | 0.00 | 0.00 | 88 | 1012.4 |
| 20260903135255 | 83 | 201 | 3.0 | 7.0 | 0.00 | 0.00 | 0.00 | 88 | 1012.4 |
| 20260903134250 | 83 | 159 | 1.0 | 5.0 | 0.00 | 0.00 | 0.00 | 88 | 1012.4 |
| 20260903133231 | 83 | 155 | 0.0 | 0.0 | 0.00 | 0.00 | 0.00 | 89 | 1012.4 |
| 20260903132720 | 83 | 155 | 0.0 | 4.0 | 0.00 | 0.00 | 0.00 | 89 | 1012.3 |
| 20260903132436 | 82 | 155 | 0.0 | 4.0 | 0.00 | 0.00 | 0.00 | 89 | 1012.3 |
| 20260903131704 | 82 | 155 | 1.0 | 4.0 | 0.00 | 0.00 | 0.00 | 89 | 1012.3 |
| 20260903131200 | 82 | 155 | 2.0 | 4.0 | 0.00 | 0.00 | 0.00 | 89 | 1011.9 |
| 20260903130700 | 82 | 155 | 2.0 | 3.0 | 0.00 | 0.00 | 0.00 | 89 | 1011.9 |
| 20260903130159 | 81 | 156 | 2.0 | 3.0 | 0.00 | 0.00 | 0.00 | 90 | 1011.9 |
| 20260903125920 | 81 | 156 | 1.0 | 3.0 | 0.00 | 0.00 | 0.00 | 89 | 1011.9 |
| 20260903125159 | 81 | 156 | 2.0 | 5.0 | 0.00 | 0.00 | 0.00 | 89 | 1011.9 |
| 20260903124657 | 82 | 157 | 3.0 | 5.0 | 0.00 | 0.00 | 0.00 | 89 | 1011.9 |
| 20260903124157 | 82 | 167 | 2.0 | 5.0 | 0.00 | 0.00 | 0.00 | 89 | 1011.9 |
| 20260903123657 | 83 | 184 | 2.0 | 9.0 | 0.00 | 0.00 | 0.00 | 89 | 1011.9 |
| 20260903123156 | 83 | 191 | 3.0 | 9.0 | 0.00 | 0.00 | 0.00 | 89 | 1011.9 |
| 20260903122656 | 83 | 184 | 5.0 | 9.0 | 0.00 | 0.00 | 0.00 | 89 | 1011.5 |
| 20260903122152 | 83 | 209 | 4.0 | 9.0 | 0.00 | 0.00 | 0.00 | 89 | 1011.5 |
| 20260903121650 | 82 | 213 | 3.0 | 8.0 | 0.00 | 0.00 | 0.00 | 90 | 1011.5 |
| 20260903121148 | 82 | 207 | 2.0 | 7.0 | 0.00 | 0.00 | 0.00 | 90 | 1011.5 |
| 20260903120649 | 82 | 203 | 2.0 | 5.0 | 0.00 | 0.00 | 0.00 | 90 | 1011.5 |
| 20260903120137 | 82 | 200 | 2.0 | 5.0 | 0.00 | 0.00 | 0.00 | 89 | 1011.5 |
| 20260903115624 | 82 | 183 | 1.0 | 5.0 | 0.00 | 0.00 | 0.00 | 89 | 1011.4 |
| 20260903115122 | 82 | 182 | 2.0 | 5.0 | 0.00 | 0.00 | 0.00 | 89 | 1011.4 |
| 20260903114839 | 82 | 186 | 2.0 | 5.0 | 0.00 | 0.00 | 0.00 | 89 | 1011.4 |
| 20260903114341 | 82 | 180 | 2.0 | 6.0 | 0.00 | 0.00 | 0.00 | 89 | 1011.4 |
| 20260903113845 | 82 | 176 | 2.0 | 6.0 | 0.00 | 0.00 | 0.00 | 89 | 1011.4 |
| 20260903113121 | 82 | 182 | 2.0 | 6.0 | 0.00 | 0.00 | 0.00 | 89 | 1011.4 |
| 20260903112620 | 82 | 179 | 2.0 | 6.0 | 0.00 | 0.00 | 0.00 | 89 | 1011.4 |
| 20260903112120 | 82 | 186 | 3.0 | 6.0 | 0.00 | 0.00 | 0.00 | 89 | 1011.4 |
| 20260903111608 | 82 | 90 | 3.0 | 6.0 | 0.00 | 0.00 | 0.00 | 89 | 1011.4 |
| 20260903111100 | 82 | 167 | 3.0 | 6.0 | 0.00 | 0.00 | 0.00 | 89 | 1011.4 |
| 20260903110556 | 82 | 176 | 2.0 | 5.0 | 0.00 | 0.00 | 0.00 | 89 | 1011.4 |
| 20260903110053 | 82 | 90 | 2.0 | 5.0 | 0.00 | 0.00 | 0.00 | 89 | 1011.4 |
| 20260903105551 | 82 | 169 | 2.0 | 5.0 | 0.00 | 0.00 | 0.00 | 89 | 1011.4 |
| 20260903105051 | 82 | 90 | 2.0 | 8.0 | 0.00 | 0.00 | 0.00 | 89 | 1011.4 |
| 20260903104551 | 82 | 176 | 2.0 | 8.0 | 0.00 | 0.00 | 0.00 | 89 | 1011.4 |
| 20260903104315 | 82 | 90 | 4.0 | 8.0 | 0.00 | 0.00 | 0.00 | 89 | 1011.3 |
| 20260903103550 | 82 | 170 | 4.0 | 9.0 | 0.00 | 0.00 | 0.00 | 88 | 1011.3 |
| 20260903103051 | 82 | 90 | 4.0 | 9.0 | 0.00 | 0.00 | 0.00 | 88 | 1011.3 |
| 20260903102551 | 82 | 170 | 4.0 | 8.0 | 0.00 | 0.00 | 0.00 | 88 | 1011.3 |
| 20260903102052 | 82 | 170 | 3.0 | 8.0 | 0.00 | 0.00 | 0.00 | 88 | 1011.3 |
| 20260903101552 | 82 | 174 | 3.0 | 8.0 | 0.00 | 0.00 | 0.00 | 88 | 1011.3 |
| 20260903101046 | 82 | 161 | 3.0 | 8.0 | 0.00 | 0.00 | 0.00 | 88 | 1011.3 |
| 20260903100536 | 82 | 172 | 4.0 | 8.0 | 0.00 | 0.00 | 0.00 | 89 | 1011.3 |
| 20260903100304 | 82 | 176 | 4.0 | 11.0 | 0.00 | 0.00 | 0.00 | 89 | 1011.3 |
| 20260903095535 | 82 | 166 | 4.0 | 11.0 | 0.00 | 0.00 | 0.00 | 89 | 1011.2 |
| 20260903095034 | 81 | 173 | 5.0 | 9.0 | 0.00 | 0.00 | 0.00 | 89 | 1011.2 |
| 20260903094536 | 81 | 171 | 5.0 | 9.0 | 0.00 | 0.00 | 0.00 | 89 | 1011.2 |
| 20260903094035 | 81 | 166 | 4.0 | 9.0 | 0.00 | 0.00 | 0.00 | 89 | 1011.3 |
| 20260903093755 | 81 | 161 | 4.0 | 8.0 | 0.00 | 0.00 | 0.00 | 89 | 1011.3 |
| 20260903093300 | 81 | 90 | 4.0 | 8.0 | 0.00 | 0.00 | 0.00 | 89 | 1011.3 |
| 20260903092536 | 81 | 90 | 4.0 | 7.0 | 0.00 | 0.00 | 0.00 | 88 | 1011.4 |
| 20260903092034 | 82 | 170 | 3.0 | 8.0 | 0.00 | 0.00 | 0.00 | 88 | 1011.4 |
| 20260903091256 | 82 | 148 | 4.0 | 8.0 | 0.00 | 0.00 | 0.00 | 88 | 1011.4 |
| 20260903090533 | 82 | 155 | 4.0 | 9.0 | 0.00 | 0.00 | 0.00 | 88 | 1011.4 |
| 20260903090028 | 82 | 90 | 5.0 | 9.0 | 0.00 | 0.00 | 0.00 | 88 | 1011.4 |
| 20260903085518 | 82 | 165 | 4.0 | 9.0 | 0.00 | 0.00 | 0.00 | 88 | 1011.3 |
| 20260903085007 | 82 | 157 | 5.0 | 10.0 | 0.00 | 0.00 | 0.00 | 88 | 1011.3 |
| 20260903084502 | 82 | 161 | 5.0 | 10.0 | 0.00 | 0.00 | 0.00 | 88 | 1011.3 |
| 20260903083445 | 82 | 186 | 4.0 | 8.0 | 0.00 | 0.00 | 0.00 | 88 | 1011.3 |
| 20260903082936 | 82 | 171 | 4.0 | 9.0 | 0.00 | 0.00 | 0.00 | 88 | 1011.4 |
| 20260903082425 | 82 | 90 | 5.0 | 9.0 | 0.00 | 0.00 | 0.00 | 88 | 1011.4 |
| 20260903081926 | 82 | 160 | 6.0 | 10.0 | 0.00 | 0.00 | 0.00 | 87 | 1011.4 |
| 20260903081423 | 82 | 166 | 7.0 | 10.0 | 0.00 | 0.00 | 0.00 | 87 | 1011.3 |
| 20260903080920 | 82 | 155 | 6.0 | 10.0 | 0.00 | 0.00 | 0.00 | 87 | 1011.3 |
| 20260903080420 | 82 | 167 | 6.0 | 9.0 | 0.00 | 0.00 | 0.00 | 87 | 1011.3 |
| 20260903075922 | 82 | 158 | 7.0 | 11.0 | 0.00 | 0.00 | 0.00 | 87 | 1011.1 |
| 20260903075422 | 82 | 133 | 7.0 | 11.0 | 0.00 | 0.00 | 0.00 | 87 | 1011.1 |
| 20260903074919 | 82 | 90 | 7.0 | 11.0 | 0.00 | 0.00 | 0.00 | 88 | 1011.1 |
| 20260903074420 | 82 | 90 | 6.0 | 10.0 | 0.00 | 0.00 | 0.00 | 88 | 1011.3 |
| 20260903073921 | 82 | 166 | 5.0 | 9.0 | 0.00 | 0.00 | 0.00 | 87 | 1011.3 |
| 20260903073421 | 82 | 166 | 4.0 | 8.0 | 0.00 | 0.00 | 0.00 | 87 | 1011.3 |
| 20260903072910 | 82 | 90 | 4.0 | 7.0 | 0.00 | 0.00 | 0.00 | 87 | 1011.3 |
| 20260903072412 | 82 | 165 | 4.0 | 8.0 | 0.00 | 0.00 | 0.00 | 87 | 1011.3 |
| 20260903071909 | 82 | 161 | 4.0 | 8.0 | 0.00 | 0.00 | 0.00 | 87 | 1011.3 |
| 20260903071410 | 82 | 164 | 4.0 | 8.0 | 0.00 | 0.00 | 0.00 | 87 | 1011.3 |
| 20260903070910 | 82 | 90 | 5.0 | 10.0 | 0.00 | 0.00 | 0.00 | 87 | 1011.3 |
| 20260903070409 | 82 | 90 | 6.0 | 10.0 | 0.00 | 0.00 | 0.00 | 87 | 1011.3 |
| 20260903065909 | 82 | 181 | 6.0 | 9.0 | 0.00 | 0.00 | 0.00 | 87 | 1011.7 |
| 20260903065409 | 82 | 90 | 4.0 | 9.0 | 0.00 | 0.00 | 0.00 | 87 | 1011.7 |
| 20260903065129 | 82 | 90 | 4.0 | 9.0 | 0.00 | 0.00 | 0.00 | 86 | 1011.7 |
| 20260903064407 | 83 | 90 | 4.0 | 9.0 | 0.00 | 0.00 | 0.00 | 87 | 1011.5 |
| 20260903063905 | 83 | 168 | 5.0 | 11.0 | 0.00 | 0.00 | 0.00 | 87 | 1011.5 |
| 20260903063405 | 83 | 155 | 6.0 | 11.0 | 0.00 | 0.00 | 0.00 | 86 | 1011.5 |
| 20260903063126 | 83 | 174 | 6.0 | 11.0 | 0.00 | 0.00 | 0.00 | 86 | 1011.7 |
| 20260903062402 | 83 | 170 | 7.0 | 13.0 | 0.00 | 0.00 | 0.00 | 86 | 1011.7 |
| 20260903061902 | 83 | 174 | 8.0 | 13.0 | 0.00 | 0.00 | 0.00 | 86 | 1011.7 |
| 20260903061400 | 83 | 160 | 7.0 | 13.0 | 0.00 | 0.00 | 0.00 | 86 | 1011.7 |
| 20260903060859 | 83 | 157 | 7.0 | 11.0 | 0.00 | 0.00 | 0.00 | 86 | 1011.7 |
| 20260903060359 | 83 | 90 | 8.0 | 13.0 | 0.00 | 0.00 | 0.00 | 86 | 1011.7 |
| 20260903055857 | 83 | 166 | 7.0 | 13.0 | 0.00 | 0.00 | 0.00 | 86 | 1011.6 |
| 20260903055357 | 83 | 164 | 7.0 | 13.0 | 0.00 | 0.00 | 0.00 | 87 | 1011.6 |
| 20260903054851 | 83 | 176 | 7.0 | 13.0 | 0.00 | 0.00 | 0.00 | 87 | 1011.6 |
| 20260903054342 | 83 | 169 | 6.0 | 13.0 | 0.00 | 0.00 | 0.00 | 87 | 1011.5 |
| 20260903054056 | 83 | 126 | 7.0 | 13.0 | 0.00 | 0.00 | 0.00 | 87 | 1011.5 |
| 20260903053319 | 83 | 141 | 7.0 | 14.0 | 0.00 | 0.00 | 0.00 | 87 | 1011.5 |
| 20260903053027 | 83 | 142 | 8.0 | 14.0 | 0.00 | 0.00 | 0.00 | 87 | 1011.4 |
| 20260903052306 | 83 | 160 | 8.0 | 15.0 | 0.00 | 0.00 | 0.00 | 87 | 1011.4 |
| 20260903052023 | 83 | 147 | 8.0 | 15.0 | 0.00 | 0.00 | 0.00 | 87 | 1011.4 |
| 20260903051302 | 83 | 90 | 9.0 | 12.0 | 0.00 | 0.00 | 0.00 | 87 | 1011.4 |
| 20260903051027 | 83 | 174 | 9.0 | 14.0 | 0.00 | 0.00 | 0.00 | 87 | 1011.4 |
| 20260903050300 | 83 | 154 | 9.0 | 14.0 | 0.00 | 0.00 | 0.00 | 87 | 1011.4 |
| 20260903045759 | 83 | 90 | 8.0 | 13.0 | 0.00 | 0.00 | 0.00 | 87 | 1011.5 |
| 20260903045300 | 83 | 166 | 8.0 | 13.0 | 0.00 | 0.00 | 0.00 | 87 | 1011.5 |
| 20260903045025 | 83 | 90 | 7.0 | 13.0 | 0.00 | 0.00 | 0.00 | 87 | 1011.5 |
| 20260903044259 | 83 | 90 | 7.0 | 11.0 | 0.00 | 0.00 | 0.00 | 87 | 1011.4 |
| 20260903043801 | 83 | 158 | 8.0 | 12.0 | 0.00 | 0.00 | 0.00 | 87 | 1011.4 |
| 20260903043259 | 83 | 90 | 8.0 | 12.0 | 0.00 | 0.00 | 0.00 | 87 | 1011.4 |
| 20260903043019 | 83 | 90 | 8.0 | 12.0 | 0.00 | 0.00 | 0.00 | 87 | 1011.4 |
| 20260903042305 | 83 | 145 | 7.0 | 12.0 | 0.00 | 0.00 | 0.00 | 87 | 1011.4 |
| 20260903041758 | 83 | 159 | 6.0 | 10.0 | 0.00 | 0.00 | 0.00 | 87 | 1011.4 |
| 20260903041255 | 83 | 159 | 5.0 | 10.0 | 0.00 | 0.00 | 0.00 | 87 | 1011.4 |
| 20260903040802 | 83 | 166 | 5.0 | 10.0 | 0.00 | 0.00 | 0.00 | 87 | 1011.4 |
| 20260903040252 | 83 | 152 | 5.0 | 11.0 | 0.00 | 0.00 | 0.00 | 87 | 1011.4 |
| 20260903035751 | 83 | 150 | 5.0 | 11.0 | 0.00 | 0.00 | 0.00 | 86 | 1011.4 |
| 20260903035251 | 83 | 155 | 5.0 | 9.0 | 0.00 | 0.00 | 0.00 | 86 | 1011.4 |
| 20260903034749 | 83 | 90 | 6.0 | 11.0 | 0.00 | 0.00 | 0.00 | 86 | 1011.4 |
| 20260903034248 | 83 | 138 | 6.0 | 11.0 | 0.00 | 0.00 | 0.00 | 86 | 1011.4 |
| 20260903033959 | 83 | 147 | 6.0 | 12.0 | 0.00 | 0.00 | 0.00 | 86 | 1011.4 |
| 20260903033504 | 83 | 151 | 8.0 | 12.0 | 0.00 | 0.00 | 0.00 | 86 | 1011.4 |
| 20260903032721 | 83 | 155 | 9.0 | 13.0 | 0.00 | 0.00 | 0.00 | 86 | 1011.0 |
| 20260903032216 | 83 | 159 | 9.0 | 13.0 | 0.00 | 0.00 | 0.00 | 86 | 1011.0 |
| 20260903031710 | 83 | 143 | 8.0 | 13.0 | 0.00 | 0.00 | 0.00 | 86 | 1011.0 |
| 20260903031200 | 83 | 145 | 8.0 | 13.0 | 0.00 | 0.00 | 0.00 | 86 | 1010.8 |
| 20260903030926 | 83 | 164 | 9.0 | 15.0 | 0.00 | 0.00 | 0.00 | 85 | 1010.8 |
| 20260903030428 | 83 | 90 | 9.0 | 15.0 | 0.00 | 0.00 | 0.00 | 86 | 1010.8 |
| 20260903025701 | 83 | 159 | 8.0 | 13.0 | 0.00 | 0.00 | 0.00 | 86 | 1010.9 |
| 20260903025157 | 83 | 157 | 8.0 | 13.0 | 0.00 | 0.00 | 0.00 | 85 | 1010.9 |
| 20260903024656 | 84 | 161 | 8.0 | 13.0 | 0.00 | 0.00 | 0.00 | 85 | 1010.9 |
| 20260903024156 | 84 | 164 | 8.0 | 12.0 | 0.00 | 0.00 | 0.00 | 85 | 1010.8 |
| 20260903023923 | 84 | 90 | 8.0 | 12.0 | 0.00 | 0.00 | 0.00 | 85 | 1010.8 |
| 20260903023157 | 84 | 168 | 7.0 | 13.0 | 0.00 | 0.00 | 0.00 | 85 | 1010.8 |
| 20260903022927 | 84 | 90 | 8.0 | 13.0 | 0.00 | 0.00 | 0.00 | 85 | 1010.7 |
| 20260903022157 | 84 | 90 | 8.0 | 15.0 | 0.00 | 0.00 | 0.00 | 85 | 1010.7 |
| 20260903021929 | 84 | 155 | 8.0 | 15.0 | 0.00 | 0.00 | 0.00 | 85 | 1010.7 |
| 20260903021154 | 84 | 90 | 9.0 | 15.0 | 0.00 | 0.00 | 0.00 | 85 | 1010.4 |
| 20260903020648 | 84 | 90 | 9.0 | 15.0 | 0.00 | 0.00 | 0.00 | 84 | 1010.4 |
| 20260903020142 | 84 | 162 | 9.0 | 15.0 | 0.00 | 0.00 | 0.00 | 84 | 1010.4 |
| 20260903015642 | 84 | 151 | 10.0 | 15.0 | 0.00 | 0.00 | 0.00 | 84 | 1010.3 |
| 20260903015403 | 84 | 90 | 10.0 | 15.0 | 0.00 | 0.00 | 0.00 | 84 | 1010.3 |
| 20260903014641 | 85 | 90 | 11.0 | 18.0 | 0.00 | 0.00 | 0.00 | 84 | 1010.3 |
| 20260903014143 | 85 | 166 | 11.0 | 18.0 | 0.00 | 0.00 | 0.00 | 84 | 1010.3 |
| 20260903013641 | 85 | 153 | 11.0 | 18.0 | 0.00 | 0.00 | 0.00 | 84 | 1010.3 |
| 20260903013140 | 85 | 90 | 11.0 | 18.0 | 0.00 | 0.00 | 0.00 | 84 | 1010.3 |
| 20260903012640 | 85 | 176 | 11.0 | 21.0 | 0.00 | 0.00 | 0.00 | 83 | 1010.1 |
| 20260903011640 | 85 | 90 | 14.0 | 21.0 | 0.00 | 0.00 | 0.00 | 83 | 1010.1 |
| 20260903011144 | 85 | 164 | 14.0 | 22.0 | 0.00 | 0.00 | 0.00 | 83 | 1009.9 |
| 20260903010635 | 85 | 140 | 13.0 | 22.0 | 0.00 | 0.00 | 0.00 | 82 | 1009.9 |
| 20260903010117 | 85 | 156 | 13.0 | 26.0 | 0.00 | 0.00 | 0.00 | 81 | 1009.9 |
| 20260903005841 | 86 | 153 | 14.0 | 26.0 | 0.00 | 0.00 | 0.00 | 81 | 1009.8 |
| 20260903005116 | 86 | 162 | 15.0 | 24.0 | 0.00 | 0.00 | 0.00 | 80 | 1009.8 |
| 20260903004846 | 86 | 170 | 15.0 | 24.0 | 0.00 | 0.00 | 0.00 | 79 | 1009.8 |
| 20260903004116 | 86 | 143 | 16.0 | 26.0 | 0.00 | 0.00 | 0.00 | 79 | 1009.7 |
| 20260903003615 | 86 | 136 | 15.0 | 26.0 | 0.00 | 0.00 | 0.00 | 80 | 1009.7 |
| 20260903003112 | 87 | 90 | 14.0 | 24.0 | 0.00 | 0.00 | 0.00 | 79 | 1009.7 |
| 20260903002613 | 87 | 90 | 15.0 | 25.0 | 0.00 | 0.00 | 0.00 | 79 | 1009.8 |
| 20260903002108 | 87 | 159 | 15.0 | 25.0 | 0.00 | 0.00 | 0.00 | 77 | 1009.8 |
| 20260903001604 | 88 | 170 | 15.0 | 26.0 | 0.00 | 0.00 | 0.00 | 78 | 1009.8 |
| 20260903001104 | 88 | 157 | 14.0 | 26.0 | 0.00 | 0.00 | 0.00 | 77 | 1009.8 |
| 20260903000606 | 88 | 166 | 15.0 | 26.0 | 0.00 | 0.00 | 0.00 | 77 | 1009.8 |
| 20260903000104 | 88 | 157 | 15.0 | 26.0 | 0.00 | 0.00 | 0.00 | 76 | 1009.8 |
| 20260902235605 | 88 | 196 | 15.0 | 26.0 | 0.00 | 0.00 | 0.00 | 76 | 1009.8 |
| 20260902235325 | 89 | 145 | 15.0 | 26.0 | 0.00 | 0.00 | 0.00 | 76 | 1009.8 |
| 20260902234609 | 89 | 162 | 15.0 | 25.0 | 0.00 | 0.00 | 0.00 | 76 | 1009.8 |
| 20260902234105 | 89 | 90 | 15.0 | 26.0 | 0.00 | 0.00 | 0.00 | 76 | 1009.6 |
| 20260902233606 | 89 | 90 | 16.0 | 26.0 | 0.00 | 0.00 | 0.00 | 75 | 1009.6 |
| 20260902233058 | 90 | 162 | 17.0 | 26.0 | 0.00 | 0.00 | 0.00 | 73 | 1009.6 |
| 20260902232543 | 91 | 90 | 16.0 | 25.0 | 0.00 | 0.00 | 0.00 | 72 | 1009.5 |
| 20260902232033 | 91 | 148 | 14.0 | 25.0 | 0.00 | 0.00 | 0.00 | 70 | 1009.5 |
| 20260902231527 | 92 | 127 | 14.0 | 23.0 | 0.00 | 0.00 | 0.00 | 69 | 1009.5 |
| 20260902231021 | 93 | 159 | 15.0 | 24.0 | 0.00 | 0.00 | 0.00 | 66 | 1009.4 |
| 20260902230749 | 93 | 151 | 15.0 | 26.0 | 0.00 | 0.00 | 0.00 | 63 | 1009.4 |
| 20260902230231 | 93 | 157 | 15.0 | 26.0 | 0.00 | 0.00 | 0.00 | 63 | 1009.4 |
| 20260902225509 | 94 | 177 | 14.0 | 23.0 | 0.00 | 0.00 | 0.00 | 63 | 1009.3 |
| 20260902225005 | 94 | 90 | 14.0 | 22.0 | 0.00 | 0.00 | 0.00 | 62 | 1009.3 |
| 20260902224507 | 94 | 128 | 14.0 | 22.0 | 0.00 | 0.00 | 0.00 | 62 | 1009.3 |
| 20260902224006 | 94 | 159 | 15.0 | 22.0 | 0.00 | 0.00 | 0.00 | 60 | 1009.3 |
| 20260902223509 | 95 | 173 | 13.0 | 22.0 | 0.00 | 0.00 | 0.00 | 60 | 1009.3 |
| 20260902222506 | 94 | 155 | 12.0 | 20.0 | 0.00 | 0.00 | 0.00 | 57 | 1009.3 |
| 20260902222005 | 94 | 159 | 12.0 | 20.0 | 0.00 | 0.00 | 0.00 | 56 | 1009.3 |
| 20260902221506 | 95 | 192 | 11.0 | 23.0 | 0.00 | 0.00 | 0.00 | 57 | 1009.3 |
| 20260902221009 | 95 | 198 | 11.0 | 23.0 | 0.00 | 0.00 | 0.00 | 56 | 1009.3 |
| 20260902220505 | 95 | 155 | 11.0 | 20.0 | 0.00 | 0.00 | 0.00 | 58 | 1009.3 |
| 20260902220004 | 96 | 167 | 11.0 | 20.0 | 0.00 | 0.00 | 0.00 | 58 | 1009.3 |
| 20260902215452 | 96 | 170 | 11.0 | 23.0 | 0.00 | 0.00 | 0.00 | 59 | 1009.3 |
| 20260902214951 | 96 | 155 | 12.0 | 23.0 | 0.00 | 0.00 | 0.00 | 59 | 1009.3 |
| 20260902214437 | 96 | 151 | 12.0 | 23.0 | 0.00 | 0.00 | 0.00 | 59 | 1009.3 |
| 20260902213926 | 96 | 153 | 11.0 | 23.0 | 0.00 | 0.00 | 0.00 | 58 | 1009.3 |
| 20260902213417 | 96 | 195 | 10.0 | 21.0 | 0.00 | 0.00 | 0.00 | 58 | 1009.3 |
| 20260902212917 | 96 | 194 | 9.0 | 19.0 | 0.00 | 0.00 | 0.00 | 60 | 1009.5 |
| 20260902212420 | 96 | 176 | 10.0 | 19.0 | 0.00 | 0.00 | 0.00 | 58 | 1009.5 |
| 20260902211917 | 96 | 90 | 10.0 | 19.0 | 0.00 | 0.00 | 0.00 | 57 | 1009.5 |
| 20260902211417 | 97 | 192 | 10.0 | 21.0 | 0.00 | 0.00 | 0.00 | 58 | 1009.8 |
| 20260902210918 | 97 | 195 | 10.0 | 21.0 | 0.00 | 0.00 | 0.00 | 58 | 1009.8 |
| 20260902210417 | 97 | 170 | 10.0 | 18.0 | 0.00 | 0.00 | 0.00 | 58 | 1009.8 |
| 20260902210140 | 97 | 186 | 10.0 | 19.0 | 0.00 | 0.00 | 0.00 | 60 | 1010.0 |
| 20260902205417 | 97 | 181 | 10.0 | 23.0 | 0.00 | 0.00 | 0.00 | 58 | 1010.0 |
| 20260902204918 | 98 | 188 | 10.0 | 23.0 | 0.00 | 0.00 | 0.00 | 58 | 1010.0 |
| 20260902204410 | 98 | 90 | 9.0 | 16.0 | 0.00 | 0.00 | 0.00 | 58 | 1010.3 |
| 20260902204135 | 98 | 199 | 8.0 | 16.0 | 0.00 | 0.00 | 0.00 | 60 | 1010.3 |
| 20260902203411 | 98 | 199 | 6.0 | 13.0 | 0.00 | 0.00 | 0.00 | 61 | 1010.3 |
| 20260902202912 | 98 | 90 | 6.0 | 12.0 | 0.00 | 0.00 | 0.00 | 56 | 1010.3 |
| 20260902202632 | 98 | 196 | 7.0 | 12.0 | 0.00 | 0.00 | 0.00 | 56 | 1010.3 |
| 20260902201911 | 99 | 220 | 7.0 | 12.0 | 0.00 | 0.00 | 0.00 | 58 | 1010.3 |